This is the latest recevied weather packets stored in our database for station/object W3EJE-13. If no packets are shown the sender has not sent any weather packets the latest 10 day(s).
| Time | Temp. | Humidity | Pressure | Rain* | Wind** | Luminosity | Snow |
|---|---|---|---|---|---|---|---|
| 1777645143 | 10.56° C | 67% | 1014.5 hPa | 0 mm | - | 454 W/m² | - |
| 1777644839 | 10° C | 68% | 1014.5 hPa | 0 mm | - | 601 W/m² | - |
| 1777644537 | 10° C | 68% | 1014.6 hPa | 0 mm | - | 409 W/m² | - |
| 1777644233 | 10° C | 68% | 1014.7 hPa | 0 mm | - | 274 W/m² | - |
| 1777643930 | 9.44° C | 70% | 1014.8 hPa | 0 mm | - | 363 W/m² | - |
| 1777643627 | 9.44° C | 70% | 1014.8 hPa | 0 mm | - | 255 W/m² | - |
| 1777643324 | 8.89° C | 70% | 1014.8 hPa | 0 mm | - | 194 W/m² | - |
| 1777643020 | 8.89° C | 72% | 1014.9 hPa | 0 mm | - | 141 W/m² | - |
| 1777642717 | 8.33° C | 76% | 1014.7 hPa | 0 mm | - | 108 W/m² | - |
| 1777642414 | 8.33° C | 77% | 1015 hPa | 0 mm | - | 119 W/m² | - |
| 1777642110 | 7.78° C | 77% | 1014.9 hPa | 0 mm | - | 108 W/m² | - |
| 1777641806 | 7.78° C | 80% | 1015 hPa | 0 mm | - | 78 W/m² | - |
| 1777641502 | 7.22° C | 83% | 1015 hPa | 0 mm | - | 81 W/m² | - |
| 1777641197 | 7.22° C | 84% | 1015 hPa | 0 mm | - | 59 W/m² | - |
| 1777640894 | 6.67° C | 87% | 1015 hPa | 0 mm | - | 57 W/m² | - |
| 1777640592 | 5.56° C | 92% | 1015.3 hPa | 0 mm | - | 60 W/m² | - |
| 1777640287 | 5° C | 98% | 1015.1 hPa | 0 mm | - | 52 W/m² | - |
| 1777639984 | 5° C | 99% | 1015.3 hPa | 0 mm | - | 50 W/m² | - |
| 1777639681 | 5° C | 99% | 1015.2 hPa | 0 mm | - | 50 W/m² | - |
| 1777639379 | 4.44° C | 99% | 1015.1 hPa | 0 mm | - | 49 W/m² | - |
| 1777639073 | 3.89° C | 99% | 1015.3 hPa | 0 mm | - | 46 W/m² | - |
| 1777638771 | 3.89° C | 99% | 1015.5 hPa | 0 mm | - | 45 W/m² | - |
| 1777638466 | 3.33° C | 99% | 1015.5 hPa | 0 mm | - | 43 W/m² | - |
| 1777638164 | 2.78° C | 99% | 1015.7 hPa | 0 mm | - | 43 W/m² | - |
| 1777637858 | 2.78° C | 99% | 1015.9 hPa | 0 mm | - | 41 W/m² | - |
* Rain latest hour (hover to see other rain measurements)
** Current wind speed in m/s (hover to see current wind gust speed)